Location: Slemon Park
(46.4340°N, 63.8219°W)
Time: 11:00:20
(UTC-03:00)

ISS - All Passes

Search period start: 20 September 2014 00:00
Search period end: 30 September 2014 00:00
Orbit: 413 x 417 km, 51.6° (Epoch: 20 September)

Date Brightness Start Highest point End Pass type
(mag) Time Alt. Az. Time Alt. Az. Time Alt. Az.
20 Sep - 02:42:01 10° S 02:44:20 18° SE 02:46:40 10° E night (unlit)
20 Sep - 04:17:22 10° WSW 04:20:42 83° NNW 04:24:02 10° ENE visible
20 Sep - 05:54:38 10° WNW 05:57:43 33° N 06:00:47 10° ENE visible
20 Sep - 07:31:45 10° WNW 07:34:55 40° NNE 07:38:06 10° E daylight
20 Sep - 09:08:28 10° WNW 09:11:45 56° SSW 09:15:01 10° SE daylight
21 Sep - 01:54:49 10° SSE 01:55:42 11° SE 01:56:36 10° ESE night (unlit)
21 Sep - 03:28:33 10° SW 03:31:51 65° SSE 03:35:10 10° ENE visible
21 Sep - 05:05:35 10° W 05:08:44 38° NNW 05:11:53 10° ENE visible
21 Sep - 06:42:51 10° WNW 06:45:57 34° N 06:49:02 10° ENE daylight
21 Sep - 08:19:35 10° WNW 08:22:55 87° SSW 08:26:15 10° ESE daylight
21 Sep - 09:57:12 10° W 09:59:12 15° SW 10:01:13 10° S daylight
22 Sep - 02:39:53 10° SW 02:43:02 41° SE 02:46:12 10° ENE night (unlit)
22 Sep - 04:16:30 10° W 04:19:44 46° NNW 04:22:59 10° ENE visible
22 Sep - 05:53:52 10° WNW 05:56:55 32° N 05:59:58 10° ENE visible
22 Sep - 07:30:41 10° WNW 07:34:00 65° NNE 07:37:19 10° ESE daylight
22 Sep - 09:07:44 10° W 09:10:30 24° SW 09:13:14 10° SSE daylight
23 Sep - 01:51:25 10° SSW 01:54:14 26° SE 01:57:03 10° E night (unlit)
23 Sep - 03:27:26 10° WSW 03:30:45 62° NNW 03:34:04 10° ENE visible
23 Sep - 05:04:48 10° WNW 05:07:51 32° N 05:10:53 10° ENE visible
23 Sep - 06:41:46 10° WNW 06:45:01 48° NNE 06:48:15 10° E daylight
23 Sep - 08:18:34 10° WNW 08:21:41 38° SW 08:24:48 10° SSE daylight
24 Sep - 01:03:19 10° S 01:05:27 16° SE 01:07:35 10° E night (unlit)
24 Sep - 02:38:25 10° WSW 02:41:45 89° NW 02:45:06 10° ENE night (unlit)
24 Sep - 04:15:39 10° WNW 04:18:44 34° N 04:21:50 10° ENE visible
24 Sep - 05:52:47 10° WNW 05:55:57 38° NNE 05:59:06 10° E visible
24 Sep - 07:29:30 10° WNW 07:32:48 62° SSW 07:36:05 10° SE daylight
24 Sep - 09:08:37 10° SW 09:08:54 10° SW 09:09:12 10° SW daylight
25 Sep - 01:49:30 10° SW 01:52:47 59° SSE 01:56:04 10° ENE night (unlit)
25 Sep - 03:26:27 10° W 03:29:37 39° NNW 03:32:47 10° ENE visible
25 Sep - 05:03:44 10° WNW 05:06:49 34° N 05:09:54 10° ENE visible
25 Sep - 06:40:28 10° WNW 06:43:48 86° NNE 06:47:08 10° ESE daylight
25 Sep - 08:17:55 10° W 08:20:08 17° SW 08:22:21 10° S daylight
26 Sep - 01:00:44 10° SSW 01:03:49 37° SE 01:06:56 10° ENE night (unlit)
26 Sep - 02:37:14 10° W 02:40:29 49° NNW 02:43:44 10° ENE night (unlit)
26 Sep - 04:14:35 10° WNW 04:17:38 32° N 04:20:41 10° ENE visible
26 Sep - 05:51:25 10° WNW 05:54:44 60° NNE 05:58:02 10° ESE visible
26 Sep - 07:28:24 10° W 07:31:16 27° SW 07:34:06 10° SSE daylight
27 Sep - 00:12:11 10° SSW 00:14:53 23° SE 00:17:35 10° E night (unlit)
27 Sep - 01:48:02 10° WSW 01:51:21 67° NNW 01:54:40 10° ENE night (unlit)
27 Sep - 03:25:22 10° WNW 03:28:25 32° N 03:31:28 10° ENE visible
27 Sep - 05:02:21 10° WNW 05:05:35 45° NNE 05:08:48 10° E visible
27 Sep - 06:39:07 10° WNW 06:42:18 43° SW 06:45:28 10° SE visible
27 Sep - 23:24:05 10° S 23:25:58 14° SE 23:27:52 10° E night (unlit)
28 Sep - 00:58:53 10° WSW 01:02:13 83° SSE 01:05:34 10° ENE night (unlit)
28 Sep - 02:36:03 10° WNW 02:39:10 35° N 02:42:16 10° ENE night (unlit)
28 Sep - 04:13:13 10° WNW 04:16:22 37° NNE 04:19:30 10° E visible
28 Sep - 05:49:55 10° WNW 05:53:14 69° SSW 05:56:33 10° SE visible
28 Sep - 07:28:13 10° WSW 07:29:23 12° SW 07:30:34 10° SSW daylight
29 Sep - 00:09:52 10° SW 00:13:07 53° SSE 00:16:22 10° ENE night (unlit)
29 Sep - 01:46:42 10° W 01:49:54 41° NNW 01:53:05 10° ENE night (unlit)
29 Sep - 03:24:01 10° WNW 03:27:05 33° N 03:30:09 10° ENE visible
29 Sep - 05:00:45 10° WNW 05:04:06 79° NNE 05:07:25 10° ESE visible
29 Sep - 06:38:02 10° W 06:40:27 19° SW 06:42:52 10° S visible
29 Sep - 23:21:00 10° SSW 23:24:01 33° SE 23:27:03 10° ENE night (unlit)
